{"data":{"norad_id":82698,"epoch":"2026-05-24T01:45:52.367328Z","epoch_age_seconds":152337,"freshness":"FRESH","line1":"1 82698U          26144.07352277  .00001455  00000+0  85621-3 0  9992","line2":"2 82698  61.6078  75.4470 0694227 349.8207   8.9319 13.30047679559967","mean_motion":13.30047679,"eccentricity":0.0694227,"inclination_deg":61.6078,"raan_deg":75.447,"arg_perigee_deg":349.8207,"mean_anomaly_deg":8.9319,"bstar":0.00085621,"rev_number":55996,"period_min":108.26679544922,"perigee_km":624.19700860575,"apogee_km":1668.9698247474,"semimajor_km":7524.7204166766,"source":"CELESTRAK","updated_at":"2026-05-25T13:38:11.193665Z"}}